Tracking 17886 objects as of 8-December-2016
HD Live streaming from Space Station
objects crossing your sky now

CZ-2D DEB

Track CZ-2D DEB now!
10-day predictions


NORAD ID: 35272
Int'l Code: 2005-024L
Perigee: 516.1 km
Apogee: 535.6 km
Inclination: 97.6 °
Period: 95.0 minutes
Semi major axis: 6896 km
RCS: 0.0215 m2 (small)
Launch date: July 5, 2005
Source: People's Republic of China (PRC)
Launch site: Jiuquan Satellite Launch Center, China (JSC)

Note: This is SATELLITE DEBRIS
Your satellite tracking list
Your tracking list is empty





NASA's NSSDC Master Catalog

Two Line Element Set (TLE):
1 35272U 05024L   16341.89767711 +.00000688 +00000-0 +39610-4 0  9996
2 35272 097.5858 018.4179 0014167 155.5294 331.0637 15.15739496608819
Source of the keplerian elements: AFSPC